Date String (YYYY-MM-DD hh:mm:ss) UTC,Instrument flags,Ambient pressure (hPa),Sample flow (lpm),Bypass flow (lpm),Sample temperature (°C),Ambient temperature (°C),ASC tube jacket temperature (°C),LED temperature (°C),Box temperature (°C),Sample RH (%),Span deviation,Mass concentration (μg/m³),Mass concentration (μg/m³),Mass concentration (μg/m³)
DateTimeUTC,F1_M11,P_M11,Q1_M11,Q2_M11,T1_M11,T2_M11,T3_M11,T4_M11,T5_M11,U1_M11,ZSPAN_M11,X0_M11,X2_M11,X1_M11
2022-10-08 18:00:00,,0835.7,5.00,0.00,28.0,26.9,00.0,36.6,29.9,18.9,-000.7,0013.87,0009.64,0009.17
2022-10-08 18:01:00,,0835.7,5.01,0.00,28.0,26.9,00.0,36.6,29.9,19.1,-000.7,0013.50,0009.60,0009.14
2022-10-08 18:02:00,,0835.6,4.99,0.00,28.0,27.0,00.0,36.7,30.0,19.5,-000.5,0013.56,0009.57,0009.13
2022-10-08 18:03:00,,0835.6,5.00,0.00,28.1,27.0,00.0,36.7,30.0,19.5,-000.5,0013.55,0009.58,0009.16
2022-10-08 18:04:00,,0835.7,4.99,0.00,28.1,27.0,00.0,36.7,30.0,19.8,-000.5,0013.99,0009.59,0009.15
2022-10-08 18:05:00,,0835.6,4.99,0.00,28.1,27.0,00.0,36.7,30.0,19.9,-000.4,0014.40,0009.62,0009.16
2022-10-08 18:06:00,,0835.6,5.01,0.00,28.1,27.0,00.0,36.7,30.0,20.1,-000.3,0014.46,0009.63,0009.14
2022-10-08 18:07:00,,0835.6,5.00,0.00,28.1,27.0,00.0,36.7,30.0,21.0,-000.4,0014.22,0009.72,0009.19
2022-10-08 18:08:00,,0835.5,5.00,0.00,28.1,27.0,00.0,36.8,30.1,20.6,-000.5,0014.37,0009.84,0009.26
2022-10-08 18:09:00,,0835.6,5.00,0.00,28.2,27.1,00.0,36.8,30.1,20.9,-000.5,0014.53,0009.96,0009.37
2022-10-08 18:10:00,,0835.6,5.00,0.00,28.2,27.1,00.0,36.8,30.1,20.7,-000.5,0014.63,0010.06,0009.47
2022-10-08 18:11:00,,0835.6,4.99,0.00,28.2,27.1,00.0,36.8,30.1,20.6,-000.9,0014.98,0010.19,0009.56
2022-10-08 18:12:00,,0835.6,5.01,0.00,28.2,27.1,00.0,36.8,30.1,20.4,-001.0,0015.71,0010.36,0009.68
2022-10-08 18:13:00,,0835.5,4.99,0.00,28.2,27.2,00.0,36.8,30.2,20.4,-001.2,0015.70,0010.46,0009.76
2022-10-08 18:14:00,,0835.6,5.00,0.00,28.2,27.2,00.0,36.9,30.2,20.3,-001.3,0016.03,0010.60,0009.85
2022-10-08 18:15:00,,0835.6,4.99,0.00,28.3,27.2,00.0,36.9,30.2,20.2,-001.4,0015.93,0010.74,0009.96
2022-10-08 18:16:00,,0835.6,5.00,0.00,28.3,27.2,00.0,36.9,30.2,19.6,-001.4,0015.85,0010.84,0010.05
2022-10-08 18:17:00,,0835.6,5.01,0.00,28.3,27.2,00.0,36.9,30.2,19.7,-001.6,0015.98,0010.93,0010.15
2022-10-08 18:18:00,,0835.6,5.00,0.00,28.3,27.2,00.0,36.9,30.2,19.6,-001.8,0016.15,0010.99,0010.20
2022-10-08 18:19:00,,0835.6,4.99,0.00,28.3,27.2,00.0,36.9,30.2,19.7,-001.8,0016.05,0010.95,0010.19
2022-10-08 18:20:00,,0835.5,5.01,0.00,28.3,27.3,00.0,37.0,30.2,19.6,-002.1,0016.04,0010.93,0010.17
2022-10-08 18:21:00,,0835.5,5.00,0.00,28.3,27.3,00.0,37.0,30.3,18.8,-002.3,0015.99,0010.91,0010.14
2022-10-08 18:22:00,,0835.5,5.00,0.00,28.4,27.3,00.0,37.0,30.3,18.9,-002.1,0015.96,0010.92,0010.14
2022-10-08 18:23:00,,0835.5,5.00,0.00,28.4,27.3,00.0,37.0,30.3,19.4,-002.0,0015.70,0010.92,0010.14
2022-10-08 18:24:00,,0835.5,5.00,0.00,28.4,27.3,00.0,37.0,30.3,19.7,-002.0,0015.80,0010.91,0010.13
2022-10-08 18:25:00,,0835.5,5.02,0.00,28.4,27.3,00.0,37.0,30.3,19.8,-001.7,0015.75,0010.88,0010.12
2022-10-08 18:26:00,,0835.5,4.99,0.00,28.4,27.4,00.0,37.0,30.3,20.0,-001.7,0015.58,0010.84,0010.09
2022-10-08 18:27:00,,0835.5,4.99,0.00,28.4,27.4,00.0,37.1,30.3,19.8,-001.8,0015.74,0010.83,0010.11
2022-10-08 18:28:00,,0835.4,5.01,0.00,28.5,27.4,00.0,37.1,30.4,19.9,-001.8,0016.27,0010.89,0010.19
2022-10-08 18:29:00,,0835.4,5.00,0.00,28.5,27.4,00.0,37.1,30.4,20.0,-001.5,0016.17,0010.93,0010.27
2022-10-08 18:30:00,,0835.4,4.99,0.00,28.5,27.4,00.0,37.1,30.4,19.9,-001.4,0016.30,0011.04,0010.37
2022-10-08 18:31:00,,0835.3,5.01,0.00,28.5,27.4,00.0,37.1,30.4,19.7,-001.1,0016.44,0011.19,0010.48
2022-10-08 18:32:00,,0835.4,5.01,0.00,28.5,27.5,00.0,37.1,30.4,19.6,-001.1,0016.72,0011.30,0010.59
2022-10-08 18:33:00,,0835.4,4.99,0.00,28.5,27.5,00.0,37.2,30.5,19.8,-001.1,0018.00,0011.41,0010.66
2022-10-08 18:34:00,,0835.4,5.01,0.00,28.6,27.5,00.0,37.2,30.5,19.8,-001.0,0018.06,0011.43,0010.71
2022-10-08 18:35:00,,0835.3,4.99,0.00,28.6,27.5,00.0,37.2,30.5,19.9,-001.0,0018.22,0011.50,0010.77
2022-10-08 18:36:00,,0835.3,4.99,0.00,28.6,27.5,00.0,37.2,30.5,19.7,-001.1,0018.25,0011.53,0010.81
2022-10-08 18:37:00,,0835.3,5.01,0.00,28.6,27.5,00.0,37.2,30.5,19.7,-001.1,0018.43,0011.57,0010.84
2022-10-08 18:38:00,,0835.3,4.99,0.00,28.6,27.5,00.0,37.3,30.5,18.6,-000.8,0018.69,0011.58,0010.82
2022-10-08 18:39:00,,0835.3,4.99,0.00,28.6,27.6,00.0,37.3,30.5,18.4,-000.7,0018.01,0011.46,0010.71
2022-10-08 18:40:00,,0835.3,5.01,0.00,28.7,27.6,00.0,37.3,30.6,18.5,-000.8,0017.96,0011.36,0010.61
2022-10-08 18:41:00,,0835.3,5.00,0.00,28.7,27.6,00.0,37.3,30.6,19.0,-000.9,0017.90,0011.26,0010.52
2022-10-08 18:42:00,,0835.2,5.00,0.00,28.7,27.6,00.0,37.3,30.6,19.0,-001.2,0018.09,0011.14,0010.43
2022-10-08 18:43:00,,0835.2,4.99,0.00,28.7,27.6,00.0,37.3,30.6,18.4,-001.1,0017.94,0011.03,0010.31
2022-10-08 18:44:00,,0835.2,5.01,0.00,28.7,27.7,00.0,37.3,30.6,18.2,-001.0,0016.62,0010.89,0010.22
2022-10-08 18:45:00,,0835.2,5.00,0.00,28.7,27.7,00.0,37.4,30.6,18.0,-001.0,0016.22,0010.82,0010.15
2022-10-08 18:46:00,,0835.2,5.00,0.00,28.7,27.7,00.0,37.4,30.6,17.9,-001.1,0015.87,0010.74,0010.09
2022-10-08 18:47:00,,0835.2,5.00,0.00,28.8,27.7,00.0,37.4,30.7,18.0,-001.3,0015.81,0010.68,0010.03
2022-10-08 18:48:00,,0835.2,5.00,0.00,28.8,27.7,00.0,37.4,30.7,18.1,-001.5,0016.02,0010.65,0010.02
2022-10-08 18:49:00,,0835.2,5.00,0.00,28.8,27.7,00.0,37.4,30.7,18.3,-001.7,0015.39,0010.63,0010.02
2022-10-08 18:50:00,,0835.2,5.01,0.00,28.8,27.7,00.0,37.4,30.7,18.2,-001.6,0015.50,0010.71,0010.08
2022-10-08 18:51:00,,0835.2,4.99,0.00,28.8,27.7,00.0,37.4,30.7,18.3,-001.8,0015.74,0010.79,0010.15
2022-10-08 18:52:00,,0835.2,5.01,0.00,28.8,27.8,00.0,37.5,30.7,18.6,-002.0,0015.92,0010.84,0010.17
2022-10-08 18:53:00,,0835.2,4.99,0.00,28.8,27.8,00.0,37.5,30.8,18.6,-001.9,0015.62,0010.88,0010.20
2022-10-08 18:54:00,,0835.1,5.01,0.00,28.9,27.8,00.0,37.5,30.8,18.1,-001.9,0015.43,0010.90,0010.24
2022-10-08 18:55:00,,0835.1,4.99,0.00,28.9,27.8,00.0,37.5,30.8,18.3,-002.1,0015.43,0010.91,0010.27
2022-10-08 18:56:00,,0835.0,5.00,0.00,28.9,27.8,00.0,37.5,30.8,18.0,-002.1,0015.50,0010.93,0010.30
2022-10-08 18:57:00,,0835.0,5.01,0.00,28.9,27.8,00.0,37.5,30.8,18.1,-002.1,0015.65,0010.96,0010.32
2022-10-08 18:58:00,,0835.0,4.99,0.00,28.9,27.9,00.0,37.6,30.8,18.0,-001.9,0015.71,0010.99,0010.34
2022-10-08 18:59:00,,0835.0,5.01,0.00,29.0,27.9,00.0,37.6,30.8,18.0,-001.7,0015.20,0011.01,0010.34
